Location: Betra
(48.4113°N, 8.6634°E)
Time: 15:28:44
(UTC+00:00)

Aureole 3 - Pass Details

Date: 07 August 2024
Orbit: 375 x 1118 km, 82.5° (Epoch: 09 September)

Event Time Altitude Azimuth Distance (km) Brightness Sun altitude
Rises 02:34:02 0° 339° (NNW) 2,807 7.3 -13.6°
Reaches altitude 10° 02:36:47 10° 324° (NW) 1,770 6.0 -13.3°
Maximum altitude 02:39:39 21° 275° (W) 1,121 4.5 -12.9°
Enters shadow 02:40:29 19° 254° (WSW) 1,152 4.4 -12.8°
